Mosby, MO

4:06 PM CST on November 20, 2019 (GMT -0600)
Clay County Regional

Weather History for KGPH - October, 2019

Change the Weather History Date:

Monday, October 21, 2019

  Actual Average (WUND) Record (WUND)
Temperature  
Mean Temperature 52 °F -  
Max Temperature 59 °F - - (-1)
Min Temperature 44 °F - - (-1)
Degree Days  
Heating Degree Days 14    
Growing Degree Days 2 (Base 50)    
Moisture  
Dew Point 41 °F    
Average Humidity 67    
Maximum Humidity 100    
Minimum Humidity 44    
Precipitation  
Precipitation 0.00 in - - ()
Sea Level Pressure  
Sea Level Pressure 29.59 in    
Wind  
Wind Speed 8 mph ()    
Max Wind Speed 22 mph    
Max Gust Speed 29 mph    
Visibility 10.0 miles    
Events Rain , Thunderstorm    
Averages and records for this station are not official NWS values.
T = Trace of Precipitation, MM = Missing Value Source: Averaged Metar Reports

Daily Weather History Graph

Daily Weather History Graph

Search for Another Location

Airport or City:

Astronomy

Oct. 21, 2019 Rise Set
Actual Time 7:33 AM CDT 6:30 PM CDT
Civil Twilight 7:05 AM CDT 6:57 PM CDT
Nautical Twilight 6:34 AM CDT 7:28 PM CDT
Astronomical Twilight 6:03 AM CDT 7:59 PM CDT
Moon No Moon Rise 2:50 PM CDT (10/21)
Length of Visible Light 11h 51m
Length of Day
10h 57m
Waning Gibbous, 48% of the Moon is Illuminated
Oct 21
Waning Gibbous
Oct 27
New
Nov 4
First Quarter
Nov 12
Full
Nov 19
Last Quarter

Hourly Weather History & Observations

Time (CDT) Temp. Windchill Dew Point Humidity Pressure Visibility Wind Dir Wind Speed Gust Speed Precip Events Conditions
12:15 AM 59.0 °F - 53.6 °F 82% 29.55 in 10.0 mi SSE 8.1 mph - N/A Thunderstorm Mostly Cloudy
12:35 AM 59.0 °F - 53.6 °F 82% 29.62 in 10.0 mi Calm Calm - N/A Rain , Thunderstorm Rain
12:55 AM 59.0 °F - 55.4 °F 88% 29.60 in 10.0 mi Calm Calm - N/A Rain , Thunderstorm Light Thunderstorms and Rain
1:15 AM 57.2 °F - 55.4 °F 94% 29.61 in 10.0 mi West 6.9 mph - N/A Rain , Thunderstorm Rain
1:35 AM 55.4 °F - 50.0 °F 82% 29.59 in 10.0 mi NW 4.6 mph 17.3 mph N/A Rain Rain
1:55 AM 55.4 °F - 50.0 °F 82% 29.55 in 10.0 mi Calm Calm - N/A Rain , Thunderstorm Light Thunderstorms and Rain
2:15 AM 53.6 °F - 50.0 °F 88% 29.52 in 10.0 mi Calm Calm - N/A   Light Drizzle
2:35 AM 53.6 °F - 51.8 °F 94% 29.49 in 10.0 mi Calm Calm - N/A   Scattered Clouds
3:15 AM 51.8 °F - 51.8 °F 100% 29.47 in 10.0 mi Calm Calm - N/A   Scattered Clouds
3:35 AM 51.8 °F - 50.0 °F 94% 29.46 in 10.0 mi Calm Calm - N/A   Mostly Cloudy
3:55 AM 51.8 °F - 50.0 °F 94% 29.48 in 10.0 mi Calm Calm - N/A   Mostly Cloudy
4:15 AM 51.8 °F - 50.0 °F 94% 29.47 in 10.0 mi Calm Calm - N/A   Mostly Cloudy
4:35 AM 50.0 °F - 50.0 °F 100% 29.47 in 10.0 mi Calm Calm - N/A   Scattered Clouds
4:55 AM 51.8 °F - 50.0 °F 94% 29.49 in 10.0 mi WSW 8.1 mph - N/A   Clear
5:15 AM 51.8 °F - 50.0 °F 94% 29.49 in 10.0 mi WSW 8.1 mph - N/A   Clear
5:35 AM 51.8 °F - 50.0 °F 94% 29.49 in 10.0 mi WSW 10.4 mph - N/A   Clear
5:55 AM 51.8 °F - 44.6 °F 76% 29.50 in 10.0 mi West 9.2 mph 16.1 mph N/A   Clear
6:15 AM 50.0 °F - 42.8 °F 76% 29.50 in 10.0 mi West 11.5 mph - N/A   Clear
6:35 AM 50.0 °F - 41.0 °F 71% 29.51 in 10.0 mi West 8.1 mph - N/A   Clear
6:55 AM 48.2 °F - 41.0 °F 76% 29.51 in 10.0 mi West 8.1 mph - N/A   Clear
7:15 AM 46.4 °F 41.9 °F 39.2 °F 76% 29.51 in 10.0 mi West 9.2 mph - N/A   Clear
7:55 AM 46.4 °F 43.5 °F 37.4 °F 71% 29.52 in 10.0 mi WSW 5.8 mph - N/A   Clear
8:15 AM 44.6 °F 39.2 °F 37.4 °F 76% 29.52 in 10.0 mi WSW 10.4 mph - N/A   Clear
8:35 AM 44.6 °F 39.7 °F 37.4 °F 76% 29.52 in 10.0 mi WSW 9.2 mph - N/A   Clear
8:55 AM 46.4 °F 42.4 °F 37.4 °F 71% 29.53 in 10.0 mi WSW 8.1 mph 16.1 mph N/A   Clear
9:15 AM 46.4 °F 41.9 °F 37.4 °F 71% 29.53 in 10.0 mi WSW 9.2 mph 16.1 mph N/A   Clear
9:35 AM 46.4 °F 40.4 °F 37.4 °F 71% 29.54 in 10.0 mi WSW 13.8 mph - N/A   Clear
9:55 AM 48.2 °F - 37.4 °F 66% 29.54 in 10.0 mi WSW 16.1 mph 23.0 mph N/A   Scattered Clouds
10:15 AM 48.2 °F - 37.4 °F 66% 29.54 in 10.0 mi WSW 12.7 mph 20.7 mph N/A   Scattered Clouds
10:35 AM 50.0 °F - 37.4 °F 62% 29.55 in 10.0 mi WSW 16.1 mph 19.6 mph N/A   Unknown
11:35 AM 51.8 °F - 37.4 °F 58% 29.55 in 10.0 mi West 12.7 mph 23.0 mph N/A   Scattered Clouds
11:55 AM 51.8 °F - 35.6 °F 54% 29.56 in 10.0 mi West 21.9 mph - N/A   Mostly Cloudy
12:15 PM 51.8 °F - 35.6 °F 54% 29.56 in 10.0 mi WSW 10.4 mph 25.3 mph N/A   Overcast
12:35 PM 51.8 °F - 35.6 °F 54% 29.56 in 10.0 mi WSW 16.1 mph 23.0 mph N/A   Overcast
12:55 PM 51.8 °F - 35.6 °F 54% 29.57 in 10.0 mi WSW 17.3 mph 24.2 mph N/A   Overcast
1:15 PM 51.8 °F - 37.4 °F 58% 29.58 in 10.0 mi SW 12.7 mph 20.7 mph N/A   Overcast
1:35 PM 53.6 °F - 37.4 °F 54% 29.58 in 10.0 mi WSW 13.8 mph 19.6 mph N/A   Overcast
1:55 PM 53.6 °F - 35.6 °F 51% 29.59 in 10.0 mi WSW 11.5 mph 21.9 mph N/A   Overcast
2:15 PM 55.4 °F - 35.6 °F 47% 29.59 in 10.0 mi WSW 13.8 mph 21.9 mph N/A   Overcast
2:35 PM 53.6 °F - 35.6 °F 51% 29.59 in 10.0 mi WSW 15.0 mph 25.3 mph N/A   Overcast
2:55 PM 53.6 °F - 35.6 °F 51% 29.59 in 10.0 mi SW 11.5 mph 19.6 mph N/A   Overcast
3:15 PM 55.4 °F - 35.6 °F 47% 29.59 in 10.0 mi WSW 13.8 mph - N/A   Overcast
3:35 PM 55.4 °F - 35.6 °F 47% 29.59 in 10.0 mi WSW 17.3 mph 27.6 mph N/A   Overcast
3:55 PM 55.4 °F - 35.6 °F 47% 29.58 in 10.0 mi WSW 19.6 mph 25.3 mph N/A   Mostly Cloudy
4:15 PM 57.2 °F - 35.6 °F 44% 29.60 in 10.0 mi WSW 19.6 mph 27.6 mph N/A   Scattered Clouds
4:35 PM 55.4 °F - 35.6 °F 47% 29.61 in 10.0 mi West 17.3 mph 28.8 mph N/A   Overcast
4:55 PM 55.4 °F - 35.6 °F 47% 29.62 in 10.0 mi West 18.4 mph 28.8 mph N/A   Overcast
5:15 PM 55.4 °F - 35.6 °F 47% 29.63 in 10.0 mi West 19.6 mph 27.6 mph N/A   Overcast
5:55 PM 53.6 °F - 39.2 °F 58% 29.65 in 10.0 mi WSW 10.4 mph 20.7 mph N/A   Overcast
6:15 PM 53.6 °F - 37.4 °F 54% 29.65 in 10.0 mi WSW 11.5 mph 18.4 mph N/A   Mostly Cloudy
6:35 PM 53.6 °F - 39.2 °F 58% 29.66 in 10.0 mi WSW 9.2 mph 18.4 mph N/A   Clear
6:55 PM 53.6 °F - 39.2 °F 58% 29.66 in 10.0 mi WSW 8.1 mph - N/A   Clear
7:35 PM 53.6 °F - 37.4 °F 54% 29.68 in 10.0 mi West 10.4 mph 16.1 mph N/A   Scattered Clouds
8:15 PM 53.6 °F - 37.4 °F 54% 29.71 in 10.0 mi West 12.7 mph 20.7 mph N/A   Mostly Cloudy
8:35 PM 53.6 °F - 35.6 °F 51% 29.72 in 10.0 mi West 16.1 mph 24.2 mph N/A   Overcast
8:55 PM 53.6 °F - 35.6 °F 51% 29.72 in 10.0 mi West 13.8 mph 23.0 mph N/A   Overcast
9:15 PM 53.6 °F - 35.6 °F 51% 29.73 in 10.0 mi West 18.4 mph 27.6 mph N/A   Overcast
9:35 PM 51.8 °F - 35.6 °F 54% 29.74 in 10.0 mi West 10.4 mph 24.2 mph N/A   Overcast
10:15 PM 51.8 °F - 37.4 °F 58% 29.76 in 10.0 mi WNW 15.0 mph 26.5 mph N/A   Overcast
10:35 PM 51.8 °F - 37.4 °F 58% 29.78 in 10.0 mi West 12.7 mph 23.0 mph N/A   Overcast
10:55 PM 51.8 °F - 37.4 °F 58% 29.79 in 10.0 mi WNW 19.6 mph 27.6 mph N/A   Overcast
11:15 PM 50.0 °F - 37.4 °F 62% 29.81 in 10.0 mi WNW 15.0 mph 23.0 mph N/A   Overcast
11:35 PM 50.0 °F - 37.4 °F 62% 29.82 in 10.0 mi WNW 9.2 mph 20.7 mph N/A   Overcast
11:55 PM 50.0 °F - 37.4 °F 62% 29.81 in 10.0 mi WNW 13.8 mph 23.0 mph N/A   Overcast